Tracking 19831 objects as of 23-Aug-2019
HD Live streaming from Space Station
objects crossing your sky now

CZ-3B DEB

Track CZ-3B DEB now!


NORAD ID: 40165
Int'l Code: 2010-042S
Perigee: 766.1 km
Apogee: 41,015.9 km
Inclination: 28.3 °
Period: 746.6 minutes
Semi major axis: 27261 km
RCS: Unknown
Launch date: September 4, 2010
Source: People's Republic of China (PRC)
Launch site: Xichang Space Center, China (XSC)

Note: This is SATELLITE DEBRIS
aabbcc
Your satellite tracking list
Your tracking list is empty




NASA's NSSDC Master Catalog

Two Line Element Set (TLE):
1 40165U 10042S   19235.46899550  .00000244  00000-0  79038-2 0  9998
2 40165  28.3493  60.0331 7382048 178.6812  39.4356  1.92871027 55800
Source of the keplerian elements: AFSPC